[[{"header":{"parameterUnit":"m.s-1","parameterCategory":1,"la1":30.2991,"la2":30.254,"lo1":-89.0895,"lo2":-89.0444,"dy":0.0017,"dx":0.0017,"nx":28,"ny":28,"refTime":"2024-06-15T03:00:00:Z","depth":0,"parameterNumber":2,"parameterNumberName":"U-component_of_WINDS"},"data":[0,0,0,0,0,0,0,0,0,0,0,0,0,0,0,0,0,0,0,0,0,0,0,0,0,0,0,0,0,0,0,0,0,0,0,0,0,0,0,0,0,0,0,0,0,0,0,0,0,0,0,0,0,0,0,0,0,0,1.1281,1.1281,0,1.1348,1.1349,1.135,1.1383,1.1383,1.1383,1.1383,1.1449,1.1451,1.1453,0,0,0,0,0,0,0,0,0,0,0,0,0,1.1177,1.1179,1.1281,1.1281,1.1282,1.1348,1.1349,1.135,1.1383,1.1383,1.1383,1.1383,1.1449,1.1451,1.1453,0,0,0,0,0,0,0,0,0,0,0,0,0,1.1231,1.118,1.128,1.1307,1.131,1.1348,1.1349,1.135,1.1383,1.1383,1.1383,1.1383,1.1448,1.145,1.1453,1.1469,0,0,1.1461,1.1462,0,0,0,0,0,0,0,0,1.1228,1.1235,1.1302,1.1305,1.1309,1.1357,1.1337,1.139,1.1383,1.1355,1.1383,1.1383,1.1418,1.1423,1.1436,1.1472,1.1475,1.1461,1.1463,1.1464,1.1465,0,0,0,0,0,0,0,1.1224,1.1232,1.1307,1.1303,1.1307,1.1314,1.1322,1.1347,1.1386,1.1357,1.136,1.1368,1.142,1.1433,1.1438,1.1476,1.1461,1.1464,1.1465,1.1466,1.1528,1.1529,0,0,0,0,0,0,1.1217,1.1229,1.1305,1.1309,1.1268,1.1316,1.1325,1.1341,1.1386,1.1392,1.1368,1.1369,1.1429,1.1435,1.144,1.1462,1.1464,1.1466,1.1468,1.1528,1.1528,1.1529,0,0,0,0,0,0,1.1214,1.1223,1.1302,1.127,1.1281,1.1318,1.1336,1.1343,1.1356,1.1393,1.14,1.1374,1.1429,1.1436,1.1462,1.1465,1.1468,1.147,1.1528,1.1528,1.1529,1.1505,0,0,0,0,0,0,1.1211,1.1222,1.1229,1.127,1.1282,1.1324,1.1337,1.1344,1.1361,1.1363,1.1401,1.1408,1.143,1.1458,1.1464,1.1468,1.1472,1.1528,1.1528,1.1528,1.1506,1.1505,1.1504,0,0,0,0,0,1.1208,1.122,1.123,1.1239,1.1292,1.1324,1.1331,1.1357,1.1361,1.1368,1.1392,1.1406,1.1463,1.146,1.1468,1.1473,1.1528,1.1528,1.1528,1.1507,1.1505,1.1504,0,0,0,0,0,0,1.1177,1.1225,1.1237,1.1263,1.1289,1.1329,1.1339,1.1354,1.1379,1.138,1.141,1.1419,1.1441,1.1459,1.1455,1.149,1.1497,1.1499,1.1478,1.1477,1.1475,1.147,1.1474,0,0,0,0,0,1.1174,1.1197,1.1237,1.1256,1.1268,1.1301,1.1316,1.1334,1.1362,1.1373,1.1399,1.1425,1.1449,1.1463,1.1487,1.1509,1.1517,1.1516,1.1515,1.1513,1.1515,1.1527,1.1527,1.1529,1.1529,1.1529,0,0,1.1166,1.1196,1.1208,1.125,1.1273,1.1295,1.131,1.1333,1.135,1.1376,1.1402,1.1422,1.1453,1.1476,1.1488,1.1492,1.1516,1.1514,1.1512,1.1514,1.1528,1.1527,1.1527,1.1529,1.1529,1.1529,0,0,1.1165,1.1189,1.1207,1.123,1.1264,1.1286,1.129,1.1329,1.1343,1.137,1.139,1.141,1.145,1.1471,1.1487,1.1493,1.1507,1.15,1.1494,1.1506,1.1506,1.1506,1.1508,1.1508,1.1501,1.1501,1.1501,0,1.1151,1.1186,1.1215,1.1236,1.1254,1.128,1.1299,1.1319,1.1358,1.137,1.1374,1.1426,1.1448,1.1477,1.1479,1.1491,1.1496,1.1496,1.1503,1.1504,1.1504,1.1507,1.1507,1.15,1.15,1.15,1.15,0,1.1167,1.1191,1.1202,1.1241,1.126,1.128,1.131,1.1326,1.1342,1.1363,1.139,1.1418,1.1448,1.1456,1.1471,1.1487,1.1489,1.1498,1.1505,1.1502,1.1505,1.1506,1.1498,1.1499,1.1499,1.1499,0,0,1.1148,1.1203,1.1207,1.1225,1.1265,1.1283,1.1304,1.1334,1.1347,1.1373,1.1391,1.1425,1.1434,1.1452,1.147,1.1481,1.1484,1.1489,1.149,1.1487,1.1503,1.1496,1.1496,1.1493,1.1494,1.1494,1.15,0,1.1152,1.1192,1.1218,1.1247,1.1269,1.1294,1.1312,1.1338,1.1358,1.1379,1.1401,1.1425,1.1435,1.1446,1.1457,1.1481,1.1487,1.1481,1.151,1.151,1.1502,1.1498,1.1491,1.1495,1.1502,1.1502,1.1502,0,1.1162,1.1189,1.122,1.1258,1.1268,1.1284,1.1314,1.1334,1.1364,1.1378,1.1398,1.1417,1.1439,1.1444,1.1475,1.147,1.1483,1.1496,1.1497,1.1501,1.1506,1.1502,1.1498,1.1498,1.1504,1.1504,1.1504,0,1.1145,1.1189,1.1214,1.1228,1.1273,1.1283,1.1302,1.1332,1.1348,1.1374,1.1385,1.1413,1.1428,1.1449,1.1474,1.1475,1.1502,1.1509,1.1514,1.1513,1.1519,1.1518,1.1516,1.1527,1.1527,1.1527,1.1527,0,1.1147,1.1165,1.1207,1.1222,1.1243,1.1272,1.1292,1.1313,1.1339,1.1358,1.1381,1.1398,1.143,1.1451,1.1471,1.1493,1.15,1.1511,1.1516,1.1509,1.1508,1.1518,1.1519,1.1527,1.1527,1.1527,1.1527,0,1.1131,1.116,1.1189,1.1229,1.1239,1.1253,1.1287,1.1302,1.1323,1.1347,1.1354,1.1388,1.1413,1.1441,1.1475,1.1489,1.151,1.1517,1.1501,1.1504,1.1507,1.1506,1.1512,1.1514,1.1523,1.1522,1.1522,0,1.113,1.1145,1.1187,1.1202,1.1221,1.1244,1.1262,1.1291,1.1308,1.1343,1.1354,1.1381,1.1405,1.1445,1.1472,1.1498,1.1506,1.1507,1.151,1.1503,1.1507,1.1505,1.1507,1.1505,1.1505,1.1505,1.1505,0,1.1126,1.114,1.1164,1.1194,1.1215,1.1239,1.1265,1.1275,1.1309,1.1327,1.1354,1.1373,1.1409,1.1436,1.1466,1.1484,1.15,1.1503,1.1506,1.1499,1.1489,1.1495,1.1497,1.1503,1.1503,1.1503,1.1503,1.1504,1.1118,1.1132,1.1164,1.1191,1.1214,1.1237,1.1253,1.1277,1.1301,1.1333,1.1348,1.1376,1.1405,1.1447,1.1465,1.1486,1.1491,1.1494,1.1495,1.1495,1.1494,1.1485,1.1491,1.1491,1.1492,1.1492,1.1492,0,1.1115,1.1137,1.1161,1.1196,1.1217,1.1231,1.126,1.1276,1.13,1.1327,1.135,1.1381,1.1407,1.1436,1.1465,1.1476,1.1484,1.1482,1.1482,1.1486,1.1488,1.1483,1.1475,1.1475,1.1475,1.1475,1.1475,1.1475,1.1115,1.1141,1.1158,1.1194,1.1216,1.1244,1.1259,1.128,1.1301,1.1335,1.1358,1.1377,1.1404,1.1435,1.1459,1.1467,1.1477,1.1473,1.1483,1.1484,1.1486,1.1487,1.1482,1.1475,1.1475,1.1479,1.1479,1.1479]},{"header":{"parameterUnit":"m.s-1","parameterCategory":1,"la1":30.2991,"la2":30.254,"lo1":-89.0895,"lo2":-89.0444,"dy":0.0017,"dx":0.0017,"nx":28,"ny":28,"refTime":"2024-06-15T03:00:00:Z","depth":0,"parameterNumber":3,"parameterNumberName":"V-component_of_WINDS"},"data":[0,0,0,0,0,0,0,0,0,0,0,0,0,0,0,0,0,0,0,0,0,0,0,0,0,0,0,0,0,0,0,0,0,0,0,0,0,0,0,0,0,0,0,0,0,0,0,0,0,0,0,0,0,0,0,0,0,0,1.4236,1.4236,0,1.4221,1.4221,1.4221,1.4194,1.4193,1.4193,1.4192,1.4177,1.4177,1.4177,0,0,0,0,0,0,0,0,0,0,0,0,0,1.4242,1.4242,1.4236,1.4236,1.4236,1.4221,1.4221,1.4221,1.4194,1.4193,1.4193,1.4192,1.4177,1.4177,1.4177,0,0,0,0,0,0,0,0,0,0,0,0,0,1.4235,1.4242,1.4236,1.4221,1.4219,1.4221,1.4221,1.4221,1.4194,1.4193,1.4192,1.4192,1.4177,1.4177,1.4177,1.4193,0,0,1.4177,1.4177,0,0,0,0,0,0,0,0,1.4235,1.4234,1.4223,1.4222,1.422,1.4209,1.4217,1.4211,1.4194,1.4204,1.4192,1.4191,1.4188,1.4187,1.4186,1.4192,1.4191,1.4177,1.4177,1.4177,1.4177,0,0,0,0,0,0,0,1.4236,1.4235,1.423,1.4223,1.4221,1.4215,1.4213,1.4216,1.42,1.4203,1.4201,1.4199,1.4187,1.4186,1.4185,1.4191,1.4177,1.4177,1.4177,1.4177,1.4209,1.4209,0,0,0,0,0,0,1.4238,1.4235,1.4231,1.423,1.4226,1.4215,1.4213,1.4213,1.42,1.4197,1.42,1.4198,1.4186,1.4185,1.4185,1.4201,1.4177,1.4177,1.4177,1.4208,1.4209,1.421,0,0,0,0,0,0,1.4239,1.4238,1.4231,1.4232,1.4231,1.4216,1.4216,1.4213,1.4212,1.4198,1.4195,1.4202,1.4185,1.4184,1.4191,1.4201,1.4177,1.4177,1.4207,1.4208,1.4209,1.4236,0,0,0,0,0,0,1.4239,1.4238,1.4244,1.4232,1.4231,1.4238,1.4217,1.4213,1.4212,1.421,1.4199,1.4196,1.4185,1.4191,1.4191,1.42,1.4177,1.4206,1.4207,1.4209,1.4234,1.4238,1.4241,0,0,0,0,0,1.4239,1.4253,1.4245,1.4244,1.4238,1.4239,1.4238,1.4224,1.4213,1.4219,1.421,1.4197,1.42,1.4192,1.4191,1.4201,1.4205,1.4207,1.4209,1.4233,1.4237,1.4241,0,0,0,0,0,0,1.4266,1.4251,1.4242,1.4252,1.4247,1.4234,1.4241,1.4229,1.4227,1.4225,1.4208,1.4206,1.4214,1.4208,1.4199,1.4215,1.42,1.4202,1.4219,1.4223,1.4226,1.4227,1.4177,0,0,0,0,0,1.4274,1.4275,1.4262,1.4272,1.427,1.4256,1.4256,1.4246,1.4239,1.4237,1.4228,1.4223,1.4222,1.4223,1.4221,1.4234,1.423,1.424,1.4244,1.4247,1.4248,1.4253,1.4257,1.4215,1.4215,1.4215,0,0,1.4288,1.428,1.4282,1.4277,1.4272,1.4274,1.4254,1.4257,1.4259,1.4238,1.4242,1.4236,1.4229,1.4238,1.4241,1.4233,1.4259,1.4249,1.4251,1.4251,1.4255,1.4259,1.4263,1.4216,1.4216,1.4216,0,0,1.4316,1.4311,1.4318,1.4313,1.4305,1.4296,1.4298,1.4287,1.4281,1.4286,1.427,1.4272,1.4271,1.4267,1.4264,1.429,1.4277,1.429,1.4308,1.4313,1.4316,1.4319,1.4327,1.4331,1.4292,1.4292,1.4292,0,1.4335,1.4338,1.4323,1.4327,1.4325,1.4306,1.4313,1.431,1.4302,1.4301,1.4292,1.4291,1.4285,1.4292,1.4298,1.4297,1.4298,1.4291,1.4317,1.432,1.4322,1.433,1.4333,1.4293,1.4293,1.4293,1.4293,0,1.4361,1.4363,1.437,1.4363,1.4362,1.4368,1.4354,1.4354,1.4345,1.4336,1.4341,1.4333,1.4329,1.4331,1.4321,1.4336,1.4331,1.432,1.4305,1.4328,1.4335,1.4338,1.4296,1.4295,1.4295,1.4294,0,0,1.4405,1.439,1.4392,1.4388,1.4379,1.438,1.4384,1.4381,1.4381,1.4377,1.438,1.438,1.437,1.4367,1.4357,1.4362,1.4381,1.435,1.4349,1.4355,1.4396,1.4404,1.4407,1.4373,1.4374,1.4374,1.4396,0,1.443,1.4436,1.4424,1.4433,1.4435,1.4417,1.4421,1.4415,1.4407,1.4407,1.4398,1.4398,1.4385,1.4383,1.4387,1.4378,1.4389,1.4376,1.4375,1.4375,1.4376,1.4411,1.4419,1.444,1.4399,1.4399,1.44,0,1.4459,1.4456,1.4466,1.4455,1.4455,1.4458,1.4454,1.4454,1.4447,1.4441,1.4438,1.4426,1.4429,1.4415,1.4419,1.4411,1.441,1.4405,1.4406,1.4404,1.4388,1.4409,1.4447,1.4449,1.4404,1.4404,1.4403,0,1.4488,1.4487,1.4492,1.4489,1.4477,1.448,1.4475,1.4467,1.4466,1.4462,1.4461,1.4458,1.4456,1.4453,1.444,1.4431,1.4446,1.4431,1.444,1.444,1.4443,1.4443,1.448,1.4444,1.4444,1.4444,1.4444,0,1.4517,1.4523,1.4505,1.4508,1.4515,1.45,1.4507,1.45,1.4493,1.4495,1.448,1.4481,1.4465,1.4464,1.4455,1.4459,1.4458,1.4453,1.445,1.4454,1.4454,1.4452,1.445,1.4445,1.4445,1.4445,1.4444,0,1.455,1.4538,1.4543,1.4531,1.4528,1.4533,1.4523,1.4525,1.4516,1.4518,1.4518,1.4504,1.4503,1.449,1.4487,1.448,1.4487,1.4482,1.449,1.4488,1.4497,1.4496,1.4533,1.4537,1.45,1.4501,1.4501,0,1.4568,1.4573,1.4561,1.4561,1.4556,1.4557,1.4555,1.4541,1.454,1.4532,1.4535,1.4533,1.453,1.4529,1.4518,1.4515,1.4509,1.4522,1.4508,1.4511,1.4508,1.4507,1.4507,1.4525,1.4525,1.4525,1.4526,0,1.4601,1.4595,1.4594,1.459,1.4588,1.4585,1.458,1.4581,1.4565,1.4565,1.4563,1.4561,1.4557,1.4554,1.4549,1.4544,1.4532,1.453,1.4532,1.4535,1.4539,1.4536,1.4496,1.4529,1.4529,1.4529,1.4528,1.4528,1.4627,1.463,1.4622,1.462,1.4615,1.4611,1.4613,1.4604,1.4603,1.4598,1.459,1.459,1.4582,1.4574,1.4569,1.4569,1.4562,1.4565,1.4565,1.4566,1.4567,1.454,1.4568,1.4568,1.4568,1.4567,1.4567,0,1.4658,1.4652,1.4651,1.4645,1.4644,1.4633,1.4628,1.4627,1.4627,1.4621,1.4618,1.4616,1.4614,1.4603,1.4599,1.4601,1.4595,1.46,1.4599,1.4598,1.4574,1.4573,1.4605,1.4605,1.4605,1.4605,1.4605,1.4605,1.4674,1.4678,1.4671,1.4672,1.4666,1.4666,1.4663,1.466,1.4655,1.4653,1.4651,1.4644,1.4636,1.4631,1.4628,1.4625,1.4624,1.4631,1.4626,1.4603,1.46,1.4596,1.4595,1.4631,1.4631,1.4649,1.4649,1.465]}]]